• In Netherlands
  • List of Countries
  • For 7 days
  • Water Temperature
  • Satellite Maps
  • Weather Map
  • Weather Widgets
  • user-avatar
    Login

    Hourly Weather Byala

    Today, 26 April, Wednesday

    Time Temperature Precipitation Wind Pressure Humidity
    00:00 +5°C° 0 mm 4 mps 756 mmHg 84%
    01:00 +4°C° 0 mm 3 mps 755 mmHg 85%
    02:00 +4°C° 0 mm 3 mps 755 mmHg 85%
    03:00 +5°C° 0 mm 2 mps 755 mmHg 84%
    04:00 +5°C° 0 mm 2 mps 755 mmHg 84%
    05:00 +5°C° 0 mm 2 mps 755 mmHg 83%
    06:00 +7°C° 0 mm 2 mps 755 mmHg 75%
    07:00 +9°C° 0 mm 2 mps 755 mmHg 67%
    08:00 +13°C° 0 mm 2 mps 755 mmHg 59%
    09:00 +13°C° 0 mm 3 mps 755 mmHg 56%
    10:00 +16°C° 0 mm 3 mps 755 mmHg 53%
    11:00 +17°C° 0 mm 4 mps 755 mmHg 50%
    12:00 +17°C° 0 mm 4 mps 755 mmHg 50%
    13:00 +18°C° 0 mm 4 mps 755 mmHg 51%
    14:00 +18°C° 0 mm 4 mps 754 mmHg 51%
    15:00 +18°C° 0 mm 4 mps 754 mmHg 54%
    16:00 +17°C° 0 mm 4 mps 754 mmHg 57%
    17:00 +15°C° 0 mm 4 mps 754 mmHg 60%
    18:00 +13°C° 0 mm 4 mps 754 mmHg 64%
    19:00 +11°C° 0 mm 4 mps 754 mmHg 69%
    20:00 +8°C° 0 mm 4 mps 754 mmHg 73%
    21:00 +8°C° 0 mm 3 mps 754 mmHg 75%
    22:00 +8°C° 0 mm 3 mps 754 mmHg 77%
    23:00 +8°C° 0 mm 3 mps 754 mmHg 79%

    Tomorrow, 27 April, Thursday

    Time Temperature Precipitation Wind Pressure Humidity
    00:00 +7°C° 0 mm 3 mps 754 mmHg 80%
    01:00 +7°C° 0 mm 2 mps 754 mmHg 81%
    02:00 +7°C° 0 mm 2 mps 753 mmHg 81%
    03:00 +7°C° 0 mm 2 mps 753 mmHg 81%
    04:00 +7°C° 0 mm 2 mps 753 mmHg 81%
    05:00 +6°C° 0 mm 2 mps 753 mmHg 81%
    06:00 +9°C° 0 mm 2 mps 753 mmHg 73%
    07:00 +13°C° 0 mm 2 mps 753 mmHg 66%
    08:00 +15°C° 0 mm 2 mps 754 mmHg 59%
    09:00 +16°C° 0 mm 3 mps 753 mmHg 56%
    10:00 +18°C° 0 mm 3 mps 753 mmHg 53%
    11:00 +19°C° 0 mm 4 mps 753 mmHg 50%
    12:00 +19°C° 0 mm 4 mps 753 mmHg 50%
    13:00 +20°C° 0 mm 4 mps 753 mmHg 51%
    14:00 +20°C° 0 mm 4 mps 753 mmHg 51%
    15:00 +19°C° 0 mm 4 mps 752 mmHg 54%
    16:00 +18°C° 0 mm 4 mps 752 mmHg 58%
    17:00 +18°C° 0 mm 3 mps 752 mmHg 61%
    18:00 +14°C° 0 mm 3 mps 752 mmHg 65%
    19:00 +12°C° 0 mm 3 mps 752 mmHg 70%
    20:00 +10°C° 0 mm 3 mps 752 mmHg 74%
    21:00 +9°C° 0 mm 3 mps 752 mmHg 75%
    22:00 +9°C° 0 mm 3 mps 752 mmHg 75%
    23:00 +8°C° 0 mm 3 mps 752 mmHg 75%

    Day after tomorrow, 28 April, Friday

    Time Temperature Precipitation Wind Pressure Humidity
    00:00 +8°C° 0 mm 2 mps 752 mmHg 76%
    01:00 +8°C° 0 mm 2 mps 752 mmHg 77%
    02:00 +8°C° 0 mm 2 mps 752 mmHg 78%
    03:00 +8°C° 0 mm 2 mps 751 mmHg 78%
    04:00 +8°C° 0 mm 2 mps 751 mmHg 77%
    05:00 +8°C° 0 mm 2 mps 751 mmHg 77%
    06:00 +10°C° 0 mm 2 mps 751 mmHg 70%
    07:00 +14°C° 0 mm 2 mps 751 mmHg 64%
    08:00 +16°C° 0 mm 3 mps 751 mmHg 57%
    09:00 +18°C° 0 mm 3 mps 751 mmHg 54%
    10:00 +19°C° 0 mm 4 mps 751 mmHg 51%
    11:00 +20°C° 0 mm 4 mps 751 mmHg 49%
    12:00 +21°C° 0 mm 4 mps 751 mmHg 49%
    13:00 +21°C° 0 mm 4 mps 750 mmHg 50%
    14:00 +21°C° 0 mm 5 mps 750 mmHg 50%
    15:00 +21°C° 0 mm 4 mps 750 mmHg 53%
    16:00 +20°C° 0 mm 4 mps 749 mmHg 57%
    17:00 +19°C° 0 mm 4 mps 749 mmHg 60%
    18:00 +17°C° 0 mm 4 mps 749 mmHg 64%
    19:00 +14°C° 0 mm 4 mps 749 mmHg 67%
    20:00 +11°C° 0 mm 4 mps 749 mmHg 71%
    21:00 +11°C° 0 mm 4 mps 749 mmHg 72%
    22:00 +11°C° 0 mm 4 mps 749 mmHg 73%
    23:00 +10°C° 0 mm 4 mps 749 mmHg 75%

    29 April, Saturday

    Time Temperature Precipitation Wind Pressure Humidity
    00:00 +10°C° 0 mm 4 mps 749 mmHg 76%
    01:00 +10°C° 0 mm 4 mps 749 mmHg 77%
    02:00 +10°C° 0 mm 4 mps 748 mmHg 78%
    03:00 +10°C° 0 mm 3 mps 748 mmHg 77%
    04:00 +10°C° 0 mm 3 mps 748 mmHg 77%
    05:00 +9°C° 0 mm 3 mps 748 mmHg 76%
    06:00 +12°C° 0 mm 3 mps 748 mmHg 70%
    07:00 +14°C° 0 mm 3 mps 748 mmHg 65%
    08:00 +18°C° 0 mm 2 mps 748 mmHg 60%
    09:00 +20°C° 0 mm 2 mps 748 mmHg 57%
    10:00 +23°C° 0 mm 2 mps 748 mmHg 54%
    11:00 +25°C° 0 mm 2 mps 748 mmHg 51%
    12:00 +25°C° 0 mm 2 mps 748 mmHg 50%
    13:00 +26°C° 0 mm 2 mps 748 mmHg 49%
    14:00 +27°C° 0 mm 2 mps 748 mmHg 48%
    15:00 +26°C° 0.1 mm 2 mps 748 mmHg 52%
    16:00 +26°C° 0.1 mm 2 mps 748 mmHg 56%
    17:00 +25°C° 0.1 mm 2 mps 748 mmHg 60%
    18:00 +23°C° 0.2 mm 2 mps 748 mmHg 68%
    19:00 +19°C° 0.2 mm 2 mps 748 mmHg 76%
    20:00 +17°C° 0.2 mm 2 mps 749 mmHg 83%
    21:00 +17°C° 0.1 mm 3 mps 749 mmHg 86%
    22:00 +15°C° 0.1 mm 4 mps 750 mmHg 88%
    23:00 +15°C° 0.1 mm 5 mps 750 mmHg 90%

    30 April, Sunday

    Time Temperature Precipitation Wind Pressure Humidity
    00:00 +14°C° 0 mm 6 mps 750 mmHg 91%
    01:00 +14°C° 0 mm 6 mps 750 mmHg 92%
    02:00 +13°C° 0 mm 6 mps 750 mmHg 93%
    03:00 +13°C° 0 mm 6 mps 751 mmHg 92%
    04:00 +13°C° 0 mm 6 mps 751 mmHg 91%
    05:00 +12°C° 0 mm 5 mps 751 mmHg 90%
    06:00 +13°C° 0 mm 5 mps 752 mmHg 88%
    07:00 +13°C° 0 mm 5 mps 752 mmHg 86%
    08:00 +13°C° 0 mm 5 mps 753 mmHg 85%
    09:00 +15°C° 0 mm 5 mps 753 mmHg 80%
    10:00 +16°C° 0 mm 5 mps 753 mmHg 75%
    11:00 +17°C° 0 mm 5 mps 754 mmHg 70%
    12:00 +19°C° 0 mm 5 mps 753 mmHg 68%
    13:00 +20°C° 0 mm 5 mps 753 mmHg 67%
    14:00 +20°C° 0 mm 5 mps 753 mmHg 65%
    15:00 +20°C° 0 mm 5 mps 753 mmHg 68%
    16:00 +19°C° 0 mm 5 mps 753 mmHg 71%
    17:00 +17°C° 0 mm 5 mps 752 mmHg 74%
    18:00 +15°C° 0 mm 5 mps 753 mmHg 80%
    19:00 +14°C° 0 mm 4 mps 753 mmHg 86%
    20:00 +12°C° 0 mm 4 mps 753 mmHg 92%
    21:00 +11°C° 0 mm 4 mps 753 mmHg 92%
    22:00 +11°C° 0 mm 4 mps 753 mmHg 92%
    23:00 +10°C° 0 mm 4 mps 752 mmHg 92%

    1 May, Monday

    Time Temperature Precipitation Wind Pressure Humidity
    00:00 +10°C° 0 mm 4 mps 752 mmHg 93%
    01:00 +10°C° 0 mm 4 mps 752 mmHg 93%
    02:00 +10°C° 0 mm 4 mps 752 mmHg 93%
    03:00 +10°C° 0 mm 4 mps 752 mmHg 93%
    04:00 +8°C° 0 mm 4 mps 752 mmHg 94%
    05:00 +8°C° 0 mm 4 mps 752 mmHg 94%
    06:00 +10°C° 0 mm 5 mps 752 mmHg 89%
    07:00 +12°C° 0 mm 5 mps 752 mmHg 83%
    08:00 +14°C° 0 mm 5 mps 752 mmHg 78%
    09:00 +15°C° 0 mm 5 mps 752 mmHg 74%
    10:00 +17°C° 0 mm 6 mps 752 mmHg 69%
    11:00 +19°C° 0 mm 6 mps 752 mmHg 65%
    12:00 +20°C° 0 mm 6 mps 752 mmHg 64%
    13:00 +20°C° 0 mm 6 mps 752 mmHg 62%
    14:00 +21°C° 0 mm 6 mps 752 mmHg 61%
    15:00 +20°C° 0 mm 6 mps 752 mmHg 63%
    16:00 +20°C° 0 mm 6 mps 751 mmHg 66%
    17:00 +19°C° 0 mm 5 mps 751 mmHg 68%
    18:00 +16°C° 0 mm 5 mps 752 mmHg 75%
    19:00 +13°C° 0 mm 4 mps 752 mmHg 82%
    20:00 +11°C° 0 mm 4 mps 752 mmHg 89%
    21:00 +11°C° 0 mm 3 mps 752 mmHg 88%
    22:00 +10°C° 0 mm 3 mps 752 mmHg 87%
    23:00 +9°C° 0 mm 3 mps 752 mmHg 86%
    Show more